Weather History for KIML - September, 2011

Change the Weather History Date:

Friday, September 30, 2011

  Actual Average Record
Temperature  
Mean Temperature 56 °F 58 °F  
Max Temperature 76 °F 73 °F 92 °F (1938)
Min Temperature 36 °F 43 °F 20 °F (1985)
Degree Days  
Heating Degree Days 9 8  
Month to date heating degree days 125 107  
Cooling Degree Days 0 1  
Month to date cooling degree days 42 91  
Year to date cooling degree days 1079 957  
Growing Degree Days 6 (Base 50)    
Moisture  
Dew Point 31 °F    
Average Humidity 48    
Maximum Humidity 76    
Minimum Humidity 19    
Precipitation  
Precipitation 0.00 in 0.05 in 1.30 in (1904)
Sea Level Pressure  
Sea Level Pressure 30.24 in    
Wind  
Wind Speed 9 mph (South)    
Max Wind Speed 20 mph    
Max Gust Speed 25 mph    
Visibility 10 miles    
Events      
T = Trace of Precipitation, MM = Missing Value Source: NWS Daily Summary

Daily Weather History Graph

Daily Weather History Graph

Search for Another Location

Airport or City:

Trip Planner

Search our weather history database for the weather conditions in past years. The results will help you decide how hot, cold, wet, or windy it might be!

Date:

Astronomy

Sep. 30, 2011 Rise Set
Actual Time 6:41 AM MDT 6:30 PM MDT
Civil Twilight 6:14 AM MDT 6:57 PM MDT
Nautical Twilight 5:42 AM MDT 7:29 PM MDT
Astronomical Twilight 5:10 AM MDT 8:01 PM MDT
Moon 10:43 AM MDT (9/30) 8:32 PM MDT (9/30)
Length of Visible Light 12h 43m
Length of Day
11h 48m
Waxing Crescent, 15% of the Moon is Illuminated
Sep 30
Waxing Crescent
Oct 3
First Quarter
Oct 11
Full
Oct 19
Last Quarter
Oct 26
New

Hourly Weather History & Observations

Time (MDT) Temp. Windchill Dew Point Humidity Pressure Visibility Wind Dir Wind Speed Gust Speed Precip Events Conditions
12:53 AM 41.0 °F 39.0 °F 30.0 °F 65% 30.38 in 10.0 mi WNW 3.5 mph - N/A   Clear
1:53 AM 37.9 °F - 30.0 °F 73% 30.38 in 10.0 mi Calm Calm - N/A   Clear
2:53 AM 37.0 °F 31.6 °F 28.9 °F 73% 30.37 in 10.0 mi WSW 6.9 mph - N/A   Clear
3:53 AM 37.0 °F 31.6 °F 30.0 °F 76% 30.37 in 10.0 mi WSW 6.9 mph - N/A   Clear
4:53 AM 37.9 °F 35.5 °F 30.0 °F 73% 30.37 in 10.0 mi WSW 3.5 mph - N/A   Clear
5:53 AM 37.9 °F - 28.9 °F 70% 30.35 in 10.0 mi Calm Calm - N/A   Clear
6:53 AM 37.9 °F 35.5 °F 28.9 °F 70% 30.38 in 10.0 mi WSW 3.5 mph - N/A   Clear
7:53 AM 42.8 °F 40.1 °F 28.4 °F 57% 30.36 in 10.0 mi SSW 4.6 mph - N/A   Clear
8:53 AM 54.0 °F - 30.0 °F 40% 30.35 in 10.0 mi South 10.4 mph - N/A   Clear
9:53 AM 60.1 °F - 30.0 °F 32% 30.33 in 10.0 mi South 15.0 mph - N/A   Clear
10:53 AM 66.0 °F - 28.9 °F 25% 30.29 in 10.0 mi South 15.0 mph 21.9 mph N/A   Clear
11:53 AM 69.8 °F - 28.4 °F 21% 30.27 in 10.0 mi South 13.8 mph 25.3 mph N/A   Clear
12:53 PM 72.0 °F - 30.0 °F 21% 30.21 in 10.0 mi South 16.1 mph 19.6 mph N/A   Clear
1:53 PM 73.9 °F - 30.9 °F 21% 30.18 in 10.0 mi South 12.7 mph 21.9 mph N/A   Clear
2:53 PM 75.0 °F - 30.9 °F 20% 30.15 in 10.0 mi South 10.4 mph 20.7 mph N/A   Clear
3:53 PM 75.9 °F - 32.0 °F 20% 30.12 in 10.0 mi South 9.2 mph 21.9 mph N/A   Clear
4:53 PM 75.9 °F - 32.0 °F 20% 30.11 in 10.0 mi South 13.8 mph 25.3 mph N/A   Clear
5:53 PM 73.0 °F - 32.0 °F 22% 30.10 in 10.0 mi SSE 10.4 mph 18.4 mph N/A   Clear
6:53 PM 64.0 °F - 34.0 °F 33% 30.12 in 10.0 mi SSE 8.1 mph - N/A   Clear
7:53 PM 57.0 °F - 35.1 °F 44% 30.14 in 10.0 mi SSE 8.1 mph - N/A   Clear
8:53 PM 55.4 °F - 33.8 °F 44% 30.14 in 10.0 mi SSE 6.9 mph - N/A   Clear
9:53 PM 55.4 °F - 33.8 °F 44% 30.15 in 10.0 mi SSE 9.2 mph - N/A   Clear
10:53 PM 55.9 °F - 33.1 °F 42% 30.12 in 10.0 mi SSE 10.4 mph - N/A   Clear
11:53 PM 55.9 °F - 32.0 °F 40% 30.11 in 10.0 mi South 11.5 mph - N/A   Clear